FW2126 Weather Reports


Display with metric or nautical units.
time (UTC)temp
F
wind
direction
speed
MPH
gust
MPH
rain 1hr
in
rain 24hr
in
rain mn
in
humidity
%
barometer
mb
20260502233036 72 330 0.0 12.0 0.00 0.00 0.00 23 1018.5
20260502231533 71 280 4.0 15.0 0.00 0.00 0.00 22 1018.6
20260502230030 72 24 7.0 15.0 0.00 0.00 0.00 22 1018.6
20260502224530 71 137 5.0 10.0 0.00 0.01 0.00 23 1018.8
20260502223033 71 311 4.0 18.0 0.00 0.01 0.00 22 1018.9
20260502221528 71 126 5.0 11.0 0.00 0.01 0.00 23 1019.1
20260502220029 70 269 5.0 11.0 0.00 0.01 0.00 23 1019.2
20260502214530 71 221 8.0 15.0 0.00 0.01 0.00 22 1019.5
20260502213022 70 258 8.0 15.0 0.00 0.01 0.00 23 1019.8
20260502211529 70 286 10.0 17.0 0.00 0.01 0.00 24 1019.9
20260502210018 70 126 5.0 11.0 0.00 0.01 0.00 25 1020.3
20260502204517 70 212 2.0 9.0 0.00 0.01 0.00 25 1020.5
20260502203015 70 201 9.0 12.0 0.00 0.01 0.00 24 1020.7
20260502201512 70 305 5.0 12.0 0.00 0.01 0.00 25 1021.0
20260502200012 68 216 7.0 12.0 0.00 0.01 0.00 27 1021.1
20260502194509 68 140 5.0 12.0 0.00 0.01 0.00 27 1021.3
20260502193008 69 202 3.0 12.0 0.00 0.01 0.00 27 1021.5
20260502191515 67 199 3.0 14.0 0.00 0.01 0.00 28 1021.7
20260502190019 68 237 7.0 16.0 0.00 0.01 0.00 28 1022.0
20260502184506 66 247 10.0 14.0 0.00 0.01 0.00 28 1022.1
20260502183005 68 196 5.0 14.0 0.00 0.01 0.00 28 1022.3
20260502181504 70 244 1.0 8.0 0.00 0.01 0.00 28 1022.7
20260502163053 65 24 6.0 11.0 0.00 0.02 0.00 35 1023.3
20260502161549 64 28 6.0 11.0 0.00 0.02 0.00 39 1023.3
20260502151534 59 360 3.0 8.0 0.00 0.05 0.00 64 1023.5
20260502123001 39 360 4.0 8.0 0.00 0.13 0.00 90 1023.2
20260502121609 39 319 7.0 12.0 0.00 0.13 0.00 90 1022.8
20260502120104 40 302 9.0 15.0 0.00 0.13 0.00 90 1022.6
20260502114558 40 290 9.0 16.0 0.00 0.15 0.00 90 1022.6
20260502113057 40 288 9.0 13.0 0.00 0.15 0.00 91 1022.7
20260502111601 40 290 9.0 13.0 0.00 0.15 0.00 92 1022.8
20260502110054 39 296 8.0 13.0 0.00 0.15 0.00 93 1022.5
20260502104553 38 288 7.0 11.0 0.00 0.15 0.00 93 1022.7
20260502103103 38 249 7.0 9.0 0.00 0.15 0.00 93 1022.7
20260502101606 38 259 4.0 9.0 0.00 0.15 0.00 92 1022.6
20260502071525 40 264 6.0 9.0 0.00 0.15 0.00 91 1022.1
20260502070024 40 264 6.0 8.0 0.00 0.15 0.00 91 1022.2
20260502064529 40 262 6.0 9.0 0.00 0.15 0.00 90 1022.2
20260502063017 41 261 6.0 7.0 0.00 0.15 0.00 89 1022.4
20260502061514 42 271 4.0 8.0 0.00 0.15 0.00 89 1022.5
20260502060013 43 274 7.0 9.0 0.00 0.15 0.00 90 1022.4
20260502054509 43 270 4.0 8.0 0.00 0.15 0.00 89 1022.4
20260502053005 44 262 6.0 10.0 0.00 0.15 0.00 88 1022.3
20260502051504 45 360 7.0 11.0 0.00 0.15 0.00 88 1022.2
20260502050101 45 279 7.0 10.0 0.00 0.15 0.00 89 1022.1
20260502044558 45 360 7.0 11.0 0.00 0.15 0.15 89 1022.0
20260502043112 45 360 7.0 10.0 0.00 0.15 0.15 89 1021.8
20260502041656 44 264 5.0 7.0 0.00 0.15 0.15 88 1021.7
20260502040053 45 276 5.0 9.0 0.00 0.15 0.15 88 1021.6
20260502034552 45 258 5.0 7.0 0.00 0.15 0.15 87 1021.7
20260502033054 46 273 5.0 8.0 0.00 0.15 0.15 86 1021.6
20260502031549 47 269 6.0 9.0 0.00 0.15 0.15 86 1021.5
20260502030048 47 271 7.0 9.0 0.00 0.15 0.15 86 1021.4
20260502024546 48 265 6.0 9.0 0.00 0.15 0.15 85 1021.1
20260502023045 49 282 6.0 10.0 0.00 0.15 0.15 83 1020.9
20260502021545 50 26 5.0 8.0 0.00 0.15 0.15 83 1020.6
20260502020044 50 29 7.0 9.0 0.00 0.15 0.15 82 1020.5
20260502014544 51 30 5.0 6.0 0.00 0.15 0.15 81 1020.3
20260502013050 51 27 5.0 6.0 0.00 0.15 0.15 80 1020.2
20260502011559 51 29 6.0 10.0 0.00 0.15 0.15 79 1020.1
20260502010045 51 28 6.0 11.0 0.00 0.15 0.15 78 1020.1
20260502004554 51 28 4.0 9.0 0.00 0.15 0.15 79 1020.1
20260502003039 52 27 5.0 9.0 0.00 0.15 0.15 78 1020.1
20260502001539 52 29 5.0 10.0 0.00 0.15 0.15 78 1020.1
20260502000036 52 28 6.0 10.0 0.00 0.15 0.15 79 1020.1
20260501234539 52 360 5.0 9.0 0.00 0.15 0.15 79 1020.0